sat.trackr.live / text

‹ back to catalog

STARLINK-37817

NORAD 69480 · 2026-131C

PAYLOAD ACTIVE UNKNOWN

§ Identity

Operator
Country
US
Launch date
2026-06-11
Launch site
AFWTR
Launch vehicle
Mass (kg)
RCS (m²)

Purposes: comms

External: N2YO · Heavens-Above · Gunter

§ Orbital elements

Epoch: 2026-09-18T00:28:38.571168Z

Period
93.91 min
Inclination
97.2827°
Eccentricity
0.0002414
Mean motion
15.33445355 rev/d
Perigee alt
463.9 km
Apogee alt
467.2 km
Semi-major
6,843.7 km
B*
5.1403e-4
RAAN
281.8631°
Arg perigee
84.9346°
Mean anomaly
275.2172°
Rev number
1,651

§ Raw data

STARLINK-378171 69480U 26131C   26261.01989087  .00016557  00000+0  51403-3 0  99982 69480  97.2827 281.8631 0002414  84.9346 275.2172 15.33445355 16515

JSON: /api/v1/satellites/69480 · /tle

For live sub-satellite position, see the globe view (requires WebGL).

§ Visibility from observer

Set your observer location to see the next 7 days of passes ≥ 10°. The values pass through the URL so the page stays shareable.

No JS? Fill the form by hand. The geolocation button needs JavaScript.